EN

Hourly Weather Bolshie Saly

Today, 20 October, Tuesday

Time Temperature Precipitation Wind Pressure Humidity
00:00 +11°C° 0 mm 3 mps 758 mmHg 64%
01:00 +10°C° 0 mm 2 mps 758 mmHg 64%
02:00 +10°C° 0 mm 2 mps 758 mmHg 64%
03:00 +9°C° 0 mm 2 mps 759 mmHg 66%
04:00 +8°C° 0 mm 2 mps 759 mmHg 67%
05:00 +8°C° 0 mm 2 mps 759 mmHg 69%
06:00 +7°C° 0 mm 2 mps 759 mmHg 70%
07:00 +8°C° 0 mm 2 mps 759 mmHg 68%
08:00 +9°C° 0 mm 2 mps 760 mmHg 65%
09:00 +10°C° 0 mm 2 mps 760 mmHg 63%
10:00 +11°C° 0 mm 3 mps 760 mmHg 56%
11:00 +12°C° 0 mm 3 mps 760 mmHg 49%
12:00 +13°C° 0 mm 4 mps 760 mmHg 43%
13:00 +14°C° 0 mm 4 mps 760 mmHg 37%
14:00 +14°C° 0 mm 4 mps 760 mmHg 32%
15:00 +14°C° 0 mm 5 mps 760 mmHg 27%
16:00 +13°C° 0 mm 4 mps 760 mmHg 30%
17:00 +12°C° 0 mm 3 mps 760 mmHg 34%
18:00 +10°C° 0 mm 3 mps 760 mmHg 37%
19:00 +10°C° 0 mm 3 mps 760 mmHg 40%
20:00 +10°C° 0 mm 3 mps 761 mmHg 44%
21:00 +9°C° 0 mm 3 mps 761 mmHg 47%
22:00 +9°C° 0 mm 3 mps 761 mmHg 49%
23:00 +9°C° 0 mm 3 mps 761 mmHg 51%

Tomorrow, 21 October, Wednesday

Time Temperature Precipitation Wind Pressure Humidity
00:00 +8°C° 0 mm 3 mps 761 mmHg 53%
01:00 +7°C° 0 mm 3 mps 762 mmHg 56%
02:00 +7°C° 0 mm 3 mps 762 mmHg 58%
03:00 +5°C° 0 mm 3 mps 762 mmHg 61%
04:00 +6°C° 0 mm 2 mps 762 mmHg 63%
05:00 +5°C° 0 mm 2 mps 762 mmHg 65%
06:00 +5°C° 0 mm 2 mps 763 mmHg 66%
07:00 +6°C° 0 mm 2 mps 763 mmHg 62%
08:00 +7°C° 0 mm 2 mps 763 mmHg 58%
09:00 +8°C° 0 mm 2 mps 764 mmHg 53%
10:00 +9°C° 0 mm 2 mps 764 mmHg 48%
11:00 +12°C° 0 mm 2 mps 763 mmHg 42%
12:00 +13°C° 0 mm 2 mps 763 mmHg 37%
13:00 +12°C° 0 mm 3 mps 763 mmHg 35%
14:00 +13°C° 0 mm 3 mps 763 mmHg 34%
15:00 +13°C° 0 mm 3 mps 762 mmHg 33%
16:00 +12°C° 0 mm 3 mps 762 mmHg 38%
17:00 +10°C° 0 mm 3 mps 762 mmHg 43%
18:00 +9°C° 0 mm 2 mps 761 mmHg 48%
19:00 +9°C° 0 mm 2 mps 761 mmHg 49%
20:00 +10°C° 0 mm 2 mps 761 mmHg 50%
21:00 +10°C° 0 mm 2 mps 761 mmHg 51%
22:00 +10°C° 0 mm 2 mps 760 mmHg 52%
23:00 +9°C° 0 mm 2 mps 760 mmHg 53%

Day after tomorrow, 22 October, Thursday

Time Temperature Precipitation Wind Pressure Humidity
00:00 +10°C° 0 mm 1 mps 760 mmHg 53%
01:00 +10°C° 0 mm 1 mps 760 mmHg 55%
02:00 +9°C° 0 mm 2 mps 760 mmHg 56%
03:00 +9°C° 0 mm 2 mps 759 mmHg 57%
04:00 +9°C° 0 mm 2 mps 759 mmHg 59%
05:00 +9°C° 0 mm 2 mps 759 mmHg 61%
06:00 +9°C° 0 mm 2 mps 759 mmHg 62%
07:00 +10°C° 0 mm 3 mps 759 mmHg 60%
08:00 +11°C° 0 mm 3 mps 759 mmHg 58%
09:00 +11°C° 0 mm 3 mps 759 mmHg 56%
10:00 +13°C° 0 mm 4 mps 759 mmHg 54%
11:00 +14°C° 0 mm 4 mps 759 mmHg 51%
12:00 +15°C° 0 mm 4 mps 759 mmHg 49%
13:00 +15°C° 0 mm 4 mps 759 mmHg 50%
14:00 +16°C° 0 mm 5 mps 759 mmHg 50%
15:00 +16°C° 0 mm 5 mps 758 mmHg 51%
16:00 +15°C° 0 mm 5 mps 758 mmHg 58%
17:00 +14°C° 0 mm 4 mps 758 mmHg 64%
18:00 +13°C° 0 mm 4 mps 758 mmHg 71%
19:00 +13°C° 0 mm 4 mps 758 mmHg 75%
20:00 +13°C° 0 mm 4 mps 758 mmHg 79%
21:00 +12°C° 0 mm 3 mps 758 mmHg 84%
22:00 +12°C° 0 mm 3 mps 758 mmHg 85%
23:00 +12°C° 0 mm 3 mps 758 mmHg 86%

23 October, Friday

Time Temperature Precipitation Wind Pressure Humidity
00:00 +11°C° 0 mm 3 mps 758 mmHg 88%
01:00 +11°C° 0 mm 3 mps 758 mmHg 88%
02:00 +11°C° 0 mm 3 mps 758 mmHg 88%
03:00 +12°C° 0 mm 2 mps 758 mmHg 88%
04:00 +12°C° 0 mm 2 mps 758 mmHg 89%
05:00 +12°C° 0 mm 2 mps 758 mmHg 90%
06:00 +12°C° 0 mm 2 mps 759 mmHg 91%
07:00 +12°C° 0 mm 3 mps 759 mmHg 86%
08:00 +13°C° 0 mm 3 mps 759 mmHg 81%
09:00 +14°C° 0 mm 4 mps 759 mmHg 76%
10:00 +17°C° 0 mm 4 mps 758 mmHg 68%
11:00 +17°C° 0 mm 5 mps 758 mmHg 61%
12:00 +20°C° 0 mm 5 mps 758 mmHg 54%
13:00 +20°C° 0 mm 5 mps 758 mmHg 53%
14:00 +20°C° 0 mm 5 mps 758 mmHg 52%
15:00 +21°C° 0 mm 5 mps 757 mmHg 51%
16:00 +19°C° 0 mm 4 mps 757 mmHg 59%
17:00 +18°C° 0 mm 4 mps 757 mmHg 67%
18:00 +16°C° 0 mm 3 mps 757 mmHg 75%
19:00 +14°C° 0 mm 3 mps 757 mmHg 79%
20:00 +14°C° 0 mm 3 mps 757 mmHg 83%
21:00 +14°C° 0 mm 2 mps 756 mmHg 87%
22:00 +13°C° 0 mm 3 mps 756 mmHg 87%
23:00 +13°C° 0 mm 3 mps 756 mmHg 86%

24 October, Saturday

Time Temperature Precipitation Wind Pressure Humidity
00:00 +13°C° 0 mm 3 mps 755 mmHg 85%
01:00 +13°C° 0 mm 3 mps 755 mmHg 85%
02:00 +12°C° 0 mm 3 mps 755 mmHg 85%
03:00 +12°C° 0 mm 3 mps 755 mmHg 85%
04:00 +12°C° 0 mm 3 mps 754 mmHg 87%
05:00 +12°C° 0 mm 3 mps 754 mmHg 88%
06:00 +12°C° 0 mm 4 mps 754 mmHg 89%
07:00 +13°C° 0 mm 4 mps 754 mmHg 85%
08:00 +14°C° 0 mm 5 mps 754 mmHg 80%
09:00 +15°C° 0 mm 5 mps 753 mmHg 76%
10:00 +16°C° 0 mm 5 mps 753 mmHg 70%
11:00 +19°C° 0 mm 6 mps 753 mmHg 64%
12:00 +20°C° 0 mm 6 mps 753 mmHg 59%
13:00 +20°C° 0 mm 6 mps 753 mmHg 58%
14:00 +20°C° 0 mm 6 mps 753 mmHg 57%
15:00 +20°C° 0 mm 6 mps 752 mmHg 56%
16:00 +19°C° 0 mm 5 mps 752 mmHg 64%
17:00 +17°C° 0 mm 4 mps 752 mmHg 72%
18:00 +16°C° 0 mm 3 mps 752 mmHg 80%
19:00 +14°C° 0 mm 3 mps 752 mmHg 83%
20:00 +14°C° 0 mm 3 mps 752 mmHg 86%
21:00 +13°C° 0 mm 3 mps 752 mmHg 89%
22:00 +13°C° 0 mm 3 mps 752 mmHg 90%
23:00 +13°C° 0 mm 3 mps 752 mmHg 91%

25 October, Sunday

Time Temperature Precipitation Wind Pressure Humidity
00:00 +12°C° 0 mm 3 mps 752 mmHg 92%
01:00 +12°C° 0 mm 3 mps 751 mmHg 93%
02:00 +12°C° 0 mm 3 mps 751 mmHg 93%
03:00 +12°C° 0 mm 3 mps 751 mmHg 94%
04:00 +13°C° 0 mm 3 mps 751 mmHg 95%
05:00 +13°C° 0 mm 3 mps 751 mmHg 96%
06:00 +13°C° 0 mm 3 mps 751 mmHg 97%
07:00 +14°C° 0 mm 3 mps 751 mmHg 92%
08:00 +15°C° 0 mm 4 mps 751 mmHg 87%
09:00 +15°C° 0 mm 4 mps 751 mmHg 81%
10:00 +16°C° 0 mm 5 mps 751 mmHg 74%
11:00 +16°C° 0 mm 5 mps 751 mmHg 68%
12:00 +17°C° 0 mm 5 mps 751 mmHg 61%
13:00 +17°C° 0 mm 6 mps 751 mmHg 57%
14:00 +17°C° 0 mm 6 mps 751 mmHg 53%
15:00 +18°C° 0 mm 7 mps 751 mmHg 49%
16:00 +16°C° 0 mm 6 mps 751 mmHg 48%
17:00 +15°C° 0 mm 5 mps 752 mmHg 48%
18:00 +13°C° 0 mm 4 mps 752 mmHg 47%
19:00 +12°C° 0 mm 4 mps 752 mmHg 50%
20:00 +11°C° 0 mm 4 mps 753 mmHg 52%
21:00 +10°C° 0 mm 4 mps 753 mmHg 55%
22:00 +10°C° 0 mm 4 mps 753 mmHg 58%
23:00 +8°C° 0 mm 4 mps 753 mmHg 60%

26 October, Monday

Time Temperature Precipitation Wind Pressure Humidity
00:00 +7°C° 0 mm 4 mps 754 mmHg 63%
01:00 +7°C° 0 mm 4 mps 754 mmHg 66%
02:00 +7°C° 0 mm 4 mps 754 mmHg 69%
03:00 +7°C° 0 mm 4 mps 754 mmHg 71%
04:00 +6°C° 0 mm 4 mps 754 mmHg 75%
05:00 +6°C° 0 mm 4 mps 754 mmHg 79%
06:00 +7°C° 0 mm 3 mps 754 mmHg 83%
07:00 +8°C° 0 mm 3 mps 755 mmHg 79%
08:00 +8°C° 0 mm 4 mps 755 mmHg 75%
09:00 +10°C° 0 mm 4 mps 755 mmHg 71%
10:00 +11°C° 0 mm 4 mps 755 mmHg 64%
11:00 +12°C° 0 mm 4 mps 755 mmHg 57%
12:00 +14°C° 0 mm 4 mps 755 mmHg 50%
13:00 +14°C° 0 mm 4 mps 755 mmHg 45%
14:00 +15°C° 0 mm 4 mps 755 mmHg 41%
15:00 +15°C° 0 mm 4 mps 755 mmHg 36%
16:00 +13°C° 0 mm 4 mps 755 mmHg 39%
17:00 +12°C° 0 mm 4 mps 756 mmHg 41%
18:00 +10°C° 0 mm 3 mps 756 mmHg 43%
19:00 +9°C° 0 mm 3 mps 756 mmHg 45%
20:00 +8°C° 0 mm 3 mps 756 mmHg 46%
21:00 +7°C° 0 mm 3 mps 757 mmHg 48%
22:00 +6°C° 0 mm 2 mps 757 mmHg 50%
23:00 +6°C° 0 mm 2 mps 757 mmHg 53%
Show more